| time (UTC) | temp C | wind direction | speed KPH | gust KPH | rain 1hr cm | rain 24hr cm | rain mn cm | humidity % | barometer mb |
| 20260510224512 | 18 | 326 | 1.6 | 14.5 | 0.00 | 1.30 | 0.00 | 36 | 1020.7 |
| 20260510223012 | 18 | 53 | 1.6 | 8.0 | 0.00 | 1.30 | 0.00 | 35 | 1020.5 |
| 20260510221510 | 19 | 286 | 1.6 | 12.9 | 0.00 | 1.30 | 0.00 | 34 | 1020.6 |
| 20260510220111 | 19 | 5 | 6.4 | 16.1 | 0.00 | 1.30 | 0.00 | 32 | 1020.5 |
| 20260510214511 | 19 | 330 | 1.6 | 16.1 | 0.00 | 1.30 | 0.00 | 34 | 1020.6 |
| 20260510213009 | 19 | 334 | 6.4 | 16.1 | 0.00 | 1.30 | 0.00 | 33 | 1020.6 |
| 20260510211508 | 20 | 323 | 4.8 | 16.1 | 0.00 | 1.30 | 0.00 | 32 | 1020.7 |
| 20260510210010 | 20 | 347 | 4.8 | 17.7 | 0.00 | 1.30 | 0.00 | 33 | 1020.8 |
| 20260510204508 | 20 | 32 | 3.2 | 16.1 | 0.00 | 1.30 | 0.00 | 32 | 1020.8 |
| 20260510203007 | 20 | 249 | 1.6 | 14.5 | 0.00 | 1.30 | 0.00 | 33 | 1020.7 |
| 20260510201506 | 20 | 355 | 1.6 | 12.9 | 0.00 | 1.30 | 0.00 | 32 | 1020.7 |
| 20260510200006 | 20 | 289 | 1.6 | 14.5 | 0.00 | 1.30 | 0.00 | 35 | 1020.8 |
| 20260510194505 | 20 | 315 | 1.6 | 12.9 | 0.00 | 1.30 | 0.00 | 33 | 1020.6 |
| 20260510193005 | 20 | 299 | 1.6 | 16.1 | 0.00 | 1.30 | 0.00 | 32 | 1020.7 |
| 20260510191504 | 20 | 355 | 3.2 | 16.1 | 0.00 | 1.30 | 0.00 | 32 | 1020.9 |
| 20260510190105 | 20 | 306 | 4.8 | 16.1 | 0.00 | 1.30 | 0.00 | 33 | 1020.8 |
| 20260510184602 | 19 | 278 | 3.2 | 17.7 | 0.00 | 1.30 | 0.00 | 33 | 1020.5 |
| 20260510183100 | 19 | 11 | 9.7 | 17.7 | 0.00 | 1.30 | 0.00 | 34 | 1020.3 |
| 20260510181607 | 18 | 288 | 4.8 | 16.1 | 0.00 | 1.30 | 0.00 | 33 | 1020.3 |
| 20260510180103 | 18 | 13 | 4.8 | 17.7 | 0.00 | 1.30 | 0.00 | 33 | 1020.4 |
| 20260510174555 | 19 | 13 | 6.4 | 14.5 | 0.00 | 1.30 | 0.00 | 33 | 1020.6 |
| 20260510173051 | 18 | 296 | 1.6 | 16.1 | 0.00 | 1.30 | 0.00 | 37 | 1020.9 |
| 20260510171557 | 18 | 322 | 4.8 | 16.1 | 0.00 | 1.30 | 0.00 | 35 | 1020.8 |
| 20260510170112 | 18 | 24 | 1.6 | 16.1 | 0.00 | 1.30 | 0.00 | 36 | 1021.0 |
| 20260510164559 | 18 | 51 | 3.2 | 24.1 | 0.00 | 1.30 | 0.00 | 36 | 1020.9 |
| 20260510163044 | 17 | 18 | 3.2 | 16.1 | 0.00 | 1.30 | 0.00 | 37 | 1020.7 |
| 20260510161541 | 17 | 355 | 1.6 | 14.5 | 0.00 | 1.30 | 0.00 | 39 | 1020.8 |
| 20260510160042 | 17 | 9 | 3.2 | 11.3 | 0.00 | 1.30 | 0.00 | 42 | 1020.9 |
| 20260510154535 | 16 | 41 | 1.6 | 16.1 | 0.00 | 1.30 | 0.00 | 45 | 1020.9 |
| 20260510153041 | 16 | 355 | 4.8 | 12.9 | 0.00 | 1.30 | 0.00 | 48 | 1020.6 |
| 20260510151534 | 15 | 9 | 0.0 | 9.7 | 0.00 | 1.30 | 0.00 | 51 | 1021.2 |
| 20260510150026 | 15 | 355 | 1.6 | 9.7 | 0.00 | 1.30 | 0.00 | 53 | 1020.9 |
| 20260510144524 | 15 | 348 | 0.0 | 3.2 | 0.00 | 1.30 | 0.00 | 56 | 1020.7 |
| 20260510143023 | 14 | 16 | 1.6 | 9.7 | 0.00 | 1.30 | 0.00 | 61 | 1020.6 |
| 20260510141518 | 13 | 355 | 1.6 | 9.7 | 0.00 | 1.30 | 0.00 | 64 | 1020.3 |
| 20260510140017 | 12 | 9 | 1.6 | 11.3 | 0.00 | 1.30 | 0.00 | 65 | 1020.1 |
| 20260510134516 | 12 | 5 | 3.2 | 11.3 | 0.00 | 1.30 | 0.00 | 66 | 1020.0 |
| 20260510133012 | 12 | 9 | 1.6 | 11.3 | 0.00 | 1.30 | 0.00 | 68 | 1019.5 |
| 20260510131509 | 11 | 360 | 0.0 | 9.7 | 0.00 | 1.30 | 0.00 | 69 | 1019.3 |
| 20260510130021 | 11 | 360 | 0.0 | 0.0 | 0.00 | 1.30 | 0.00 | 70 | 1019.1 |
| 20260510124505 | 11 | 360 | 0.0 | 6.4 | 0.00 | 1.30 | 0.00 | 70 | 1019.0 |
| 20260510123003 | 11 | 360 | 0.0 | 9.7 | 0.00 | 1.30 | 0.00 | 69 | 1018.8 |
| 20260510121501 | 11 | 324 | 0.0 | 0.0 | 0.00 | 1.30 | 0.00 | 69 | 1018.7 |
| 20260510120058 | 11 | 323 | 0.0 | 0.0 | 0.00 | 1.30 | 0.00 | 70 | 1018.5 |
| 20260510114601 | 11 | 323 | 0.0 | 0.0 | 0.00 | 1.30 | 0.00 | 72 | 1018.4 |
| 20260510113051 | 11 | 323 | 0.0 | 0.0 | 0.00 | 1.30 | 0.00 | 72 | 1017.9 |
| 20260510111547 | 11 | 323 | 0.0 | 0.0 | 0.00 | 1.30 | 0.00 | 72 | 1017.4 |
| 20260510110046 | 11 | 322 | 0.0 | 0.0 | 0.00 | 1.30 | 0.00 | 73 | 1017.3 |
| 20260510104548 | 11 | 322 | 0.0 | 0.0 | 0.00 | 1.30 | 0.00 | 73 | 1017.1 |
| 20260510103043 | 11 | 321 | 0.0 | 0.0 | 0.00 | 1.30 | 0.00 | 74 | 1016.9 |
| 20260510101541 | 11 | 332 | 0.0 | 6.4 | 0.00 | 1.30 | 0.00 | 76 | 1016.7 |
| 20260510100037 | 11 | 327 | 1.6 | 9.7 | 0.00 | 1.30 | 0.00 | 77 | 1016.3 |
| 20260510094535 | 11 | 340 | 0.0 | 0.0 | 0.00 | 1.30 | 0.00 | 78 | 1016.2 |
| 20260510093033 | 11 | 5 | 0.0 | 0.0 | 0.00 | 1.30 | 0.00 | 77 | 1015.9 |
| 20260510091535 | 12 | 355 | 0.0 | 0.0 | 0.00 | 1.30 | 0.00 | 77 | 1015.5 |
| 20260510090030 | 12 | 355 | 0.0 | 11.3 | 0.00 | 1.30 | 0.00 | 78 | 1015.5 |
| 20260510084525 | 12 | 342 | 0.0 | 6.4 | 0.00 | 1.30 | 0.00 | 80 | 1015.3 |
| 20260510083025 | 12 | 350 | 0.0 | 3.2 | 0.00 | 1.30 | 0.00 | 80 | 1014.9 |
| 20260510081520 | 13 | 347 | 0.0 | 6.4 | 0.00 | 1.30 | 0.00 | 81 | 1014.9 |
| 20260510080023 | 13 | 348 | 0.0 | 0.0 | 0.00 | 1.30 | 0.00 | 84 | 1014.9 |
| 20260510074517 | 13 | 5 | 0.0 | 0.0 | 0.00 | 1.32 | 0.00 | 86 | 1014.9 |
| 20260510073014 | 13 | 11 | 1.6 | 14.5 | 0.00 | 1.32 | 0.00 | 88 | 1014.6 |
| 20260510071518 | 13 | 17 | 0.0 | 0.0 | 0.00 | 1.32 | 0.00 | 89 | 1014.2 |
| 20260510070010 | 13 | 18 | 0.0 | 0.0 | 0.00 | 1.32 | 0.00 | 89 | 1014.1 |
| 20260510064524 | 13 | 18 | 0.0 | 0.0 | 0.00 | 1.32 | 0.00 | 89 | 1013.9 |
| 20260510063008 | 13 | 18 | 0.0 | 0.0 | 0.00 | 1.32 | 0.00 | 89 | 1013.9 |
| 20260510061510 | 14 | 18 | 0.0 | 0.0 | 0.00 | 1.32 | 0.00 | 88 | 1013.6 |
| 20260510060005 | 14 | 18 | 0.0 | 0.0 | 0.00 | 1.32 | 0.00 | 88 | 1013.7 |
| 20260510054559 | 15 | 18 | 0.0 | 0.0 | 0.00 | 1.32 | 0.00 | 87 | 1013.4 |
| 20260510053056 | 15 | 18 | 0.0 | 0.0 | 0.00 | 1.32 | 0.00 | 87 | 1013.3 |
| 20260510051557 | 15 | 18 | 0.0 | 0.0 | 0.00 | 1.32 | 0.00 | 86 | 1013.3 |
| 20260510050052 | 15 | 18 | 0.0 | 0.0 | 0.00 | 1.32 | 0.00 | 86 | 1013.0 |
| 20260510044550 | 15 | 19 | 0.0 | 1.6 | 0.00 | 1.32 | 1.32 | 86 | 1013.1 |
| 20260510043048 | 15 | 13 | 0.0 | 6.4 | 0.00 | 1.32 | 1.32 | 88 | 1012.6 |
| 20260510041546 | 15 | 11 | 0.0 | 11.3 | 0.00 | 1.32 | 1.32 | 89 | 1012.3 |
| 20260510040045 | 15 | 17 | 3.2 | 11.3 | 0.00 | 1.32 | 1.32 | 90 | 1012.0 |
| 20260510034547 | 15 | 5 | 0.0 | 8.0 | 0.00 | 1.32 | 1.32 | 90 | 1012.2 |
| 20260510033048 | 16 | 317 | 0.0 | 9.7 | 0.00 | 1.32 | 1.32 | 90 | 1012.0 |
| 20260510031540 | 16 | 12 | 0.0 | 0.0 | 0.00 | 1.32 | 1.32 | 90 | 1011.7 |
| 20260510030036 | 16 | 26 | 0.0 | 0.0 | 0.00 | 1.32 | 1.32 | 89 | 1011.2 |
| 20260510024536 | 16 | 27 | 0.0 | 0.0 | 0.03 | 1.32 | 1.32 | 89 | 1011.0 |
| 20260510023035 | 16 | 26 | 0.0 | 3.2 | 0.10 | 1.32 | 1.32 | 89 | 1010.6 |
| 20260510021534 | 16 | 38 | 0.0 | 1.6 | 0.30 | 1.32 | 1.32 | 89 | 1010.3 |
| 20260510020034 | 16 | 119 | 0.0 | 6.4 | 1.27 | 1.32 | 1.32 | 88 | 1010.2 |
| 20260510014534 | 16 | 279 | 0.0 | 14.5 | 1.27 | 1.32 | 1.30 | 87 | 1010.9 |
| 20260510013033 | 17 | 283 | 3.2 | 16.1 | 1.19 | 1.24 | 1.22 | 86 | 1011.2 |
| 20260510011530 | 18 | 22 | 14.5 | 33.8 | 0.99 | 1.04 | 1.02 | 79 | 1009.7 |
| 20260510010028 | 23 | 295 | 3.2 | 9.7 | 0.03 | 0.08 | 0.05 | 62 | 1007.8 |
| 20260510004530 | 23 | 246 | 0.0 | 0.0 | 0.00 | 0.10 | 0.03 | 57 | 1007.2 |
| 20260510003026 | 25 | 246 | 0.0 | 0.0 | 0.00 | 0.10 | 0.03 | 51 | 1007.3 |
| 20260510001527 | 25 | 246 | 0.0 | 0.0 | 0.00 | 0.10 | 0.03 | 51 | 1007.9 |
| 20260510000033 | 26 | 246 | 0.0 | 0.0 | 0.00 | 0.10 | 0.03 | 47 | 1007.9 |
| 20260509234537 | 26 | 246 | 0.0 | 3.2 | 0.00 | 0.18 | 0.03 | 44 | 1007.9 |
| 20260509233024 | 26 | 246 | 0.0 | 11.3 | 0.00 | 0.18 | 0.03 | 41 | 1008.0 |
| 20260509231524 | 26 | 261 | 4.8 | 14.5 | 0.00 | 0.18 | 0.03 | 40 | 1008.2 |
| 20260509230023 | 26 | 233 | 3.2 | 16.1 | 0.00 | 0.18 | 0.03 | 40 | 1007.5 |